Roseau, MN

12:44 AM CST on December 04, 2016 (GMT -0600)
Roseau Municipal-Billberg

Weather History for KROX - July, 2013

Change the Weather History Date:

Sunday, July 28, 2013

  Actual Average Record
Temperature  
Mean Temperature 58 °F -  
Max Temperature 73 °F 77 °F 93 °F (1951)
Min Temperature 44 °F 51 °F 34 °F (1971)
Degree Days  
Heating Degree Days 6    
Growing Degree Days 8 (Base 50)    
Moisture  
Dew Point 48 °F    
Average Humidity 69    
Maximum Humidity 87    
Minimum Humidity 41    
Precipitation  
Precipitation 0.00 in - - ()
Sea Level Pressure  
Sea Level Pressure 30.04 in    
Wind  
Wind Speed 1 mph (SE)    
Max Wind Speed 6 mph    
Max Gust Speed -    
Visibility 10 miles    
Events      
Averages and records for this station are not official NWS values.
T = Trace of Precipitation, MM = Missing Value Source: NWS Daily Summary

Daily Weather History Graph

Daily Weather History Graph

Search for Another Location

Airport or City:

Trip Planner

Search our weather history database for the weather conditions in past years. The results will help you decide how hot, cold, wet, or windy it might be!

Date:

Astronomy

Jul. 28, 2013 Rise Set
Actual Time 5:51 AM CDT 9:06 PM CDT
Civil Twilight 5:13 AM CDT 9:44 PM CDT
Nautical Twilight 4:23 AM CDT 10:33 PM CDT
Astronomical Twilight 3:18 AM CDT 11:37 PM CDT
Moon 11:46 PM CDT (7/28) 1:15 PM CDT (7/28)
Length of Visible Light 16h 31m
Length of Day
15h 15m
Waning Gibbous, 60% of the Moon is Illuminated
Jul 28
Waning Gibbous
Jul 29
Last Quarter
Aug 6
New
Aug 14
First Quarter
Aug 20
Full

Hourly Weather History & Observations

Time (CDT) Temp. Dew Point Humidity Pressure Visibility Wind Dir Wind Speed Gust Speed Precip Events Conditions
12:14 AM 50.0 °F 44.6 °F 82% 30.07 in 10.0 mi Calm Calm - N/A   Clear
12:34 AM 50.0 °F 44.6 °F 82% 30.07 in 10.0 mi Calm Calm - N/A   Clear
12:54 AM 48.2 °F 44.6 °F 87% 30.07 in 10.0 mi Calm Calm - N/A   Clear
1:14 AM 48.2 °F 42.8 °F 82% 30.07 in 10.0 mi Calm Calm - N/A   Clear
1:34 AM 48.2 °F 42.8 °F 82% 30.08 in 10.0 mi Calm Calm - N/A   Clear
1:55 AM 46.4 °F 42.8 °F 87% 30.08 in 10.0 mi Calm Calm - N/A   Clear
2:14 AM 46.4 °F 42.8 °F 87% 30.08 in 10.0 mi Calm Calm - N/A   Clear
2:34 AM 46.4 °F 42.8 °F 87% 30.07 in 10.0 mi Calm Calm - N/A   Clear
2:55 AM 46.4 °F 42.8 °F 87% 30.07 in 10.0 mi Calm Calm - N/A   Clear
3:14 AM 46.4 °F 42.8 °F 87% 30.07 in 10.0 mi Calm Calm - N/A   Clear
3:34 AM 44.6 °F 39.2 °F 81% 30.06 in 10.0 mi Calm Calm - N/A   Clear
3:54 AM 44.6 °F 39.2 °F 81% 30.06 in 10.0 mi Calm Calm - N/A   Clear
4:14 AM 44.6 °F 39.2 °F 81% 30.06 in 10.0 mi Calm Calm - N/A   Clear
4:35 AM 44.6 °F 39.2 °F 81% 30.06 in 10.0 mi Calm Calm - N/A   Mostly Cloudy
4:54 AM 44.6 °F 41.0 °F 87% 30.06 in 10.0 mi Calm Calm - N/A   Mostly Cloudy
5:14 AM 44.6 °F 41.0 °F 87% 30.06 in 10.0 mi Calm Calm - N/A   Scattered Clouds
5:35 AM 44.6 °F 39.2 °F 81% 30.06 in 10.0 mi Calm Calm - N/A   Clear
5:54 AM 44.6 °F 39.2 °F 81% 30.06 in 10.0 mi Calm Calm - N/A   Clear
6:14 AM 44.6 °F 39.2 °F 81% 30.06 in 10.0 mi Calm Calm - N/A   Clear
6:35 AM 44.6 °F 39.2 °F 81% 30.06 in 10.0 mi Calm Calm - N/A   Clear
6:54 AM 44.6 °F 39.2 °F 81% 30.06 in 10.0 mi Calm Calm - N/A   Clear
7:14 AM 44.6 °F 41.0 °F 87% 30.06 in 10.0 mi Calm Calm - N/A   Clear
7:35 AM 46.4 °F 42.8 °F 87% 30.07 in 10.0 mi Calm Calm - N/A   Clear
7:54 AM 46.4 °F 41.0 °F 81% 30.07 in 10.0 mi Calm Calm - N/A   Clear
8:14 AM 48.2 °F 44.6 °F 87% 30.07 in 10.0 mi Calm Calm - N/A   Clear
8:35 AM 53.6 °F 48.2 °F 82% 30.06 in 10.0 mi Calm Calm - N/A   Clear
8:54 AM 55.4 °F 50.0 °F 82% 30.06 in 10.0 mi Calm Calm - N/A   Clear
9:14 AM 57.2 °F 51.8 °F 82% 30.06 in 10.0 mi Calm Calm - N/A   Clear
9:34 AM 60.8 °F 51.8 °F 72% 30.06 in 10.0 mi Calm Calm - N/A   Clear
9:54 AM 60.8 °F 50.0 °F 68% 30.05 in 10.0 mi Calm Calm - N/A   Clear
10:14 AM 62.6 °F 51.8 °F 68% 30.05 in 10.0 mi Calm Calm - N/A   Clear
10:34 AM 64.4 °F 51.8 °F 64% 30.05 in 10.0 mi Calm Calm - N/A   Clear
10:54 AM 64.4 °F 51.8 °F 64% 30.05 in 10.0 mi Calm Calm - N/A   Clear
11:15 AM 66.2 °F 51.8 °F 60% 30.05 in 10.0 mi Calm Calm - N/A   Clear
11:34 AM 66.2 °F 51.8 °F 60% 30.05 in 10.0 mi Calm Calm - N/A   Clear
11:54 AM 68.0 °F 51.8 °F 56% 30.05 in 10.0 mi Calm Calm - N/A   Clear
12:15 PM 69.8 °F 50.0 °F 49% 30.05 in 10.0 mi North 5.8 mph - N/A   Scattered Clouds
12:34 PM 68.0 °F 51.8 °F 56% 30.04 in 10.0 mi North 5.8 mph - N/A   Mostly Cloudy
12:54 PM 68.0 °F 50.0 °F 52% 30.04 in 10.0 mi Calm Calm - N/A   Mostly Cloudy
1:15 PM 69.8 °F 50.0 °F 49% 30.04 in 10.0 mi Calm Calm - N/A   Scattered Clouds
1:34 PM 69.8 °F 51.8 °F 53% 30.04 in 10.0 mi NW 3.5 mph - N/A   Mostly Cloudy
1:54 PM 69.8 °F 48.2 °F 46% 30.04 in 10.0 mi Calm Calm - N/A   Scattered Clouds
2:14 PM 71.6 °F 48.2 °F 43% 30.04 in 10.0 mi Calm Calm - N/A   Clear
2:34 PM 71.6 °F 50.0 °F 46% 30.04 in 10.0 mi North 3.5 mph - N/A   Clear
2:54 PM 71.6 °F 50.0 °F 46% 30.03 in 10.0 mi Calm Calm - N/A   Clear
3:14 PM 73.4 °F 50.0 °F 44% 30.03 in 10.0 mi Calm Calm - N/A   Scattered Clouds
3:34 PM 69.8 °F 51.8 °F 53% 30.03 in 10.0 mi Calm Calm - N/A   Mostly Cloudy
3:54 PM 73.4 °F 48.2 °F 41% 30.02 in 10.0 mi Calm Calm - N/A   Scattered Clouds
4:14 PM 73.4 °F 50.0 °F 44% 30.02 in 10.0 mi Calm Calm - N/A   Scattered Clouds
4:34 PM 73.4 °F 48.2 °F 41% 30.02 in 10.0 mi Calm Calm - N/A   Clear
4:54 PM 73.4 °F 50.0 °F 44% 30.02 in 10.0 mi NNE 5.8 mph - N/A   Scattered Clouds
5:14 PM 71.6 °F 48.2 °F 43% 30.02 in 10.0 mi Calm Calm - N/A   Scattered Clouds
5:34 PM 73.4 °F 50.0 °F 44% 30.02 in 10.0 mi Calm Calm - N/A   Clear
5:54 PM 73.4 °F 48.2 °F 41% 30.02 in 10.0 mi Calm Calm - N/A   Scattered Clouds
6:14 PM 73.4 °F 50.0 °F 44% 30.01 in 10.0 mi Calm Calm - N/A   Scattered Clouds
6:34 PM 69.8 °F 55.4 °F 60% 30.01 in 10.0 mi Calm Calm - N/A   Clear
6:54 PM 71.6 °F 51.8 °F 50% 30.01 in 10.0 mi ESE 3.5 mph - N/A   Clear
7:14 PM 71.6 °F 53.6 °F 53% 30.01 in 10.0 mi East 4.6 mph - N/A   Clear
7:34 PM 69.8 °F 53.6 °F 56% 30.01 in 10.0 mi ESE 5.8 mph - N/A   Clear
7:54 PM 69.8 °F 55.4 °F 60% 30.01 in 10.0 mi ESE 3.5 mph - N/A   Clear
8:14 PM 66.2 °F 55.4 °F 68% 30.02 in 10.0 mi ESE 4.6 mph - N/A   Clear
8:34 PM 64.4 °F 55.4 °F 73% 30.02 in 10.0 mi SE 4.6 mph - N/A   Clear
8:54 PM 62.6 °F 53.6 °F 72% 30.02 in 10.0 mi SE 3.5 mph - N/A   Clear
9:14 PM 60.8 °F 53.6 °F 77% 30.02 in 10.0 mi SE 3.5 mph - N/A   Clear
9:34 PM 59.0 °F 51.8 °F 77% 30.03 in 10.0 mi SE 3.5 mph - N/A   Clear
9:54 PM 57.2 °F 51.8 °F 82% 30.03 in 10.0 mi SSE 4.6 mph - N/A   Clear
10:14 PM 57.2 °F 51.8 °F 82% 30.03 in 10.0 mi SE 5.8 mph - N/A   Clear
10:34 PM 55.4 °F 50.0 °F 82% 30.03 in 10.0 mi SSE 5.8 mph - N/A   Clear
10:54 PM 53.6 °F 48.2 °F 82% 30.04 in 10.0 mi South 4.6 mph - N/A   Clear
11:14 PM 53.6 °F 48.2 °F 82% 30.04 in 10.0 mi South 3.5 mph - N/A   Clear
11:34 PM 53.6 °F 48.2 °F 82% 30.04 in 10.0 mi South 3.5 mph - N/A   Clear
11:54 PM 53.6 °F 48.2 °F 82% 30.04 in 10.0 mi SSW 3.5 mph - N/A   Clear